Flag for Australia Weather past 2 weeks in Sydney, New South Wales, Australia

Now
54 °F

Clear.


Feels Like: 52 °F
Forecast: 49 / 64 °F
Wind: 6 mph from Northwest

Location: Sydney Airport

Current Time: Sep 20, 2014 at 12:45:32 AM

Latest Report: Sep 20, 2014 at 12:00 AM


Visibility: 10 mi

Pressure: 30.15 "Hg

Humidity: 63%

Dew point: 41 °F

Location of SydneyLocation

Historic Weather in Sydney — Graph

°F

Sydney temperature yesterday

Maximum temperature yesterday: 68 °F (at 2:00 PM)
Minimum temperature yesterday: 48 °F (at 4:30 AM)
Average temperature yesterday: 58 °F

Past Weeks' High & Low Weather Summary

 TemperatureHumidityPressure
High79 °F (Sep 11, 3:00 PM)100% (Sep 7, 11:30 PM)30.48 "Hg (Sep 7, 11:30 PM)
Low48 °F (Sep 5, 3:00 AM)18% (Sep 17, 3:49 PM)29.68 "Hg (Sep 10, 2:30 AM)
Average61 °F63%30.09 "Hg
* Reported Sep 4 11:00 PM — Sep 19 11:30 PM, Sydney, Weather by CustomWeather, © 2014

Note: Actual official high and low records may vary slightly from our data, if they occured in-between our weather recording intervals... More about our weather records

Advertising

Sydney weather history for previous 24 hours

 ConditionsComfort  
Time TempWeatherWind HumidityBarometerVisibility
11:30 PM
Sep 19
54 °FClear.3 mph67%30.15 "Hg10 mi
11:00 PM55 °FClear.6 mph63%30.15 "Hg10 mi
10:30 PM57 °FClear.6 mph55%30.18 "Hg10 mi
10:00 PM55 °FClear.7 mph63%30.18 "Hg10 mi
9:30 PM57 °FClear.7 mph63%30.15 "Hg10 mi
9:00 PM57 °FClear.8 mph59%30.15 "Hg10 mi
8:30 PM57 °FClear.9 mph59%30.15 "Hg10 mi
8:00 PM59 °FClear.7 mph51%30.15 "Hg10 mi
7:30 PM59 °FClear.7 mph51%30.15 "Hg10 mi
7:00 PM59 °FClear.9 mph51%30.12 "Hg10 mi
6:30 PM59 °FClear.10 mph55%30.12 "Hg10 mi
6:00 PM61 °FClear.12 mph52%30.12 "Hg10 mi
5:30 PM61 °FClear.12 mph48%30.09 "Hg10 mi
5:00 PM61 °FClear.9 mph42%30.09 "Hg10 mi
4:30 PM63 °FSunny.10 mph39%30.07 "Hg10 mi
4:00 PM63 °FSunny.10 mph39%30.07 "Hg10 mi
3:30 PM64 °FSunny.13 mph37%30.07 "Hg10 mi
3:00 PM64 °FSunny.14 mph37%30.07 "Hg10 mi
2:30 PM66 °FSunny.12 mph35%30.07 "Hg10 mi
2:00 PM68 °FSunny.9 mph20%30.07 "Hg10 mi
1:30 PM66 °FPassing clouds.7 mph32%30.09 "HgN/A
1:00 PM66 °FSunny.7 mph26%30.09 "Hg10 mi
12:30 PM64 °FPassing clouds.7 mph32%30.09 "HgN/A
12:00 PM64 °FPassing clouds.6 mph30%30.12 "HgN/A
11:30 AM63 °FPassing clouds.8 mph32%30.12 "HgN/A
11:00 AM66 °FSunny.8 mph30%30.15 "Hg10 mi
10:30 AM64 °FPassing clouds.8 mph34%30.15 "HgN/A
10:00 AM63 °FPassing clouds.7 mph39%30.18 "HgN/A
9:30 AM63 °FSunny.7 mph39%30.18 "Hg10 mi
9:00 AM59 °FPartly sunny.7 mph45%30.18 "HgN/A
8:30 AM57 °FPartly sunny.8 mph48%30.18 "HgN/A
8:00 AM55 °FPartly sunny.8 mph47%30.18 "HgN/A
7:30 AM52 °FPartly sunny.8 mph54%30.15 "HgN/A
7:00 AM50 °FScattered clouds.7 mph58%30.15 "HgN/A
6:30 AM48 °FPartly sunny.9 mph62%30.15 "HgN/A
6:00 AM48 °FScattered clouds.8 mph62%30.15 "HgN/A
5:00 AM48 °FSunny.9 mph62%30.15 "Hg10 mi
4:30 AM48 °FClear.7 mph62%30.12 "Hg10 mi
4:00 AM50 °FClear.7 mph58%30.12 "Hg10 mi
3:30 AM50 °FClear.7 mph58%30.12 "Hg10 mi
3:00 AM50 °FClear.8 mph58%30.12 "Hg10 mi
2:30 AM50 °FClear.7 mph58%30.12 "Hg10 mi
2:00 AM50 °FClear.10 mph54%30.12 "Hg10 mi
1:30 AM50 °FClear.8 mph58%30.12 "Hg10 mi
1:00 AM52 °FClear.9 mph50%30.12 "Hg10 mi
12:30 AM54 °FClear.9 mph47%30.12 "Hg10 mi
12:00 AM54 °FClear.12 mph51%30.15 "Hg10 mi
Weather by CustomWeather, © 2014

See weather overviewHow to use our weather pages